Date String (YYYY-MM-DD hh:mm:ss) UTC,Instrument flags,Ambient pressure (hPa),Sample flow (lpm),Bypass flow (lpm),Sample temperature (°C),Ambient temperature (°C),ASC tube jacket temperature (°C),LED temperature (°C),Box temperature (°C),Sample RH (%),Span deviation,Mass concentration (μg/m³),Mass concentration (μg/m³),Mass concentration (μg/m³)
DateTimeUTC,F1_M11,P_M11,Q1_M11,Q2_M11,T1_M11,T2_M11,T3_M11,T4_M11,T5_M11,U1_M11,ZSPAN_M11,X0_M11,X2_M11,X1_M11
2022-05-28 21:00:00,,0813.6,4.99,0.00,29.4,28.4,00.0,38.2,31.3,19.4,0000.0,0018.82,0009.22,0007.97
2022-05-28 21:01:00,,0813.6,5.00,0.00,29.4,28.5,00.0,38.2,31.4,18.9,0000.0,0018.95,0009.17,0007.93
2022-05-28 21:02:00,,0813.6,5.00,0.00,29.4,28.5,00.0,38.2,31.4,19.3,0000.0,0018.23,0009.08,0007.89
2022-05-28 21:03:00,,0813.5,5.02,0.00,29.4,27.8,00.0,38.1,31.2,19.8,0003.3,0017.89,0009.10,0007.85
2022-05-28 21:04:00,,0813.5,4.99,0.00,29.3,27.1,00.0,38.1,31.0,20.0,0001.7,0018.02,0009.11,0007.83
2022-05-28 21:05:00,,0813.5,5.00,0.00,29.3,27.0,00.0,38.1,31.0,18.5,0001.3,0017.13,0009.14,0007.80
2022-05-28 21:06:00,,0813.4,5.00,0.00,29.2,27.1,00.0,38.1,31.0,18.5,0002.8,0016.08,0009.16,0007.79
2022-05-28 21:07:00,,0813.4,5.00,0.00,29.2,27.2,00.0,38.1,31.0,16.4,0004.3,0016.48,0009.20,0007.79
2022-05-28 21:08:00,,0813.4,4.99,0.00,29.2,27.4,00.0,38.1,31.0,18.5,0004.0,0017.93,0009.23,0007.79
2022-05-28 21:09:00,,0813.4,5.00,0.00,29.2,27.7,00.0,38.1,31.1,17.5,0002.0,0018.47,0009.24,0007.80
2022-05-28 21:10:00,,0813.4,5.00,0.00,29.2,27.9,00.0,38.1,31.2,18.1,0003.1,0018.62,0009.27,0007.83
2022-05-28 21:11:00,,0813.4,5.00,0.00,29.3,28.0,00.0,38.1,31.2,18.8,0002.6,0018.82,0009.27,0007.84
2022-05-28 21:12:00,,0813.4,4.99,0.00,29.3,28.2,00.0,38.1,31.3,17.6,0003.2,0018.85,0009.30,0007.85
2022-05-28 21:13:00,,0813.4,5.00,0.00,29.4,28.4,00.0,38.1,31.3,17.4,0002.1,0019.08,0009.37,0007.85
2022-05-28 21:14:00,,0813.4,5.00,0.00,29.4,28.5,00.0,38.2,31.4,15.2,0000.7,0019.41,0009.35,0007.81
2022-05-28 21:15:00,,0813.4,4.99,0.00,29.4,28.6,00.0,38.2,31.4,16.1,0000.0,0019.36,0009.23,0007.72
2022-05-28 21:16:00,,0813.3,4.99,0.00,29.5,28.5,00.0,38.2,31.4,16.9,0000.0,0019.52,0009.20,0007.71
2022-05-28 21:17:00,,0813.3,5.01,0.00,29.4,27.7,00.0,38.1,31.2,15.9,0000.0,0020.14,0009.19,0007.70
2022-05-28 21:18:00,,0813.3,4.99,0.00,29.3,27.1,00.0,38.1,31.0,15.7,0000.0,0019.92,0009.14,0007.65
2022-05-28 21:19:00,,0813.3,5.00,0.00,29.3,27.0,00.0,38.1,31.0,15.7,0000.0,0018.37,0009.08,0007.61
2022-05-28 21:20:00,,0813.3,5.00,0.00,29.2,27.1,00.0,38.1,31.0,15.8,0000.0,0017.61,0009.01,0007.57
2022-05-28 21:21:00,,0813.3,5.00,0.00,29.2,27.3,00.0,38.1,31.0,14.1,0000.0,0017.54,0008.96,0007.51
2022-05-28 21:22:00,,0813.3,5.00,0.00,29.2,27.5,00.0,38.1,31.1,15.5,0000.0,0017.62,0008.98,0007.48
2022-05-28 21:23:00,,0813.3,5.00,0.00,29.2,27.7,00.0,38.1,31.1,15.2,0000.0,0018.42,0008.93,0007.43
2022-05-28 21:24:00,,0813.3,5.00,0.00,29.3,27.9,00.0,38.1,31.2,14.4,0000.0,0018.22,0008.78,0007.34
2022-05-28 21:25:00,,0813.3,5.01,0.00,29.3,28.1,00.0,38.1,31.2,15.3,0000.0,0018.42,0008.67,0007.28
2022-05-28 21:26:00,,0813.3,5.00,0.00,29.3,28.2,00.0,38.1,31.3,15.5,0000.0,0018.23,0008.65,0007.28
2022-05-28 21:27:00,,0813.3,4.99,0.00,29.4,28.4,00.0,38.2,31.3,15.9,0000.0,0018.14,0008.53,0007.21
2022-05-28 21:28:00,,0813.3,4.99,0.00,29.4,28.5,00.0,38.2,31.4,15.0,0000.0,0017.84,0008.45,0007.15
2022-05-28 21:29:00,,0813.3,4.99,0.00,29.4,28.3,00.0,38.2,31.4,15.5,0000.0,0018.05,0008.41,0007.11
2022-05-28 21:30:00,,0813.3,5.01,0.00,29.4,27.4,00.0,38.1,31.1,16.5,0000.0,0019.07,0008.40,0007.08
2022-05-28 21:31:00,,0813.3,5.00,0.00,29.3,27.0,00.0,38.1,30.9,16.0,0000.0,0020.23,0008.36,0007.03
2022-05-28 21:32:00,,0813.3,4.99,0.00,29.2,27.0,00.0,38.1,30.9,14.6,0000.0,0020.72,0008.25,0006.97
2022-05-28 21:33:00,,0813.3,5.01,0.00,29.2,27.1,00.0,38.0,30.9,13.5,0000.0,0021.04,0008.09,0006.87
2022-05-28 21:34:00,,0813.3,5.00,0.00,29.2,27.3,00.0,38.0,31.0,13.9,0000.0,0019.98,0007.98,0006.78
2022-05-28 21:35:00,,0813.2,4.99,0.00,29.2,27.5,00.0,38.0,31.0,14.4,0000.0,0019.82,0007.95,0006.76
2022-05-28 21:36:00,,0813.2,4.99,0.00,29.2,27.7,00.0,38.1,31.1,13.9,0000.0,0021.04,0007.96,0006.73
2022-05-28 21:37:00,,0813.2,5.00,0.00,29.2,27.9,00.0,38.1,31.1,14.9,0000.0,0021.38,0007.92,0006.71
2022-05-28 21:38:00,,0813.2,5.00,0.00,29.2,28.0,00.0,38.1,31.2,14.8,0000.0,0021.15,0007.92,0006.69
2022-05-28 21:39:00,,0813.1,5.01,0.00,29.3,28.2,00.0,38.1,31.2,13.8,0000.0,0020.25,0007.81,0006.64
2022-05-28 21:40:00,,0813.1,5.01,0.00,29.3,28.3,00.0,38.1,31.3,13.5,0000.0,0019.63,0007.74,0006.57
2022-05-28 21:41:00,,0813.1,5.00,0.00,29.4,28.4,00.0,38.1,31.3,13.9,0000.0,0018.02,0007.64,0006.47
2022-05-28 21:42:00,,0813.1,5.00,0.00,29.4,28.4,00.0,38.1,31.4,14.5,0000.0,0017.30,0007.54,0006.37
2022-05-28 21:43:00,,0813.2,5.00,0.00,29.4,27.7,00.0,38.1,31.2,13.8,0000.0,0016.88,0007.50,0006.32
2022-05-28 21:44:00,,0813.0,5.01,0.00,29.3,27.0,00.0,38.0,30.9,13.7,0000.0,0016.09,0007.46,0006.27
2022-05-28 21:45:00,,0813.0,5.00,0.00,29.2,26.9,00.0,38.0,30.9,14.4,0000.0,0016.08,0007.37,0006.21
2022-05-28 21:46:00,,0813.0,5.00,0.00,29.1,27.0,00.0,38.0,30.9,13.6,0000.0,0015.73,0007.26,0006.12
2022-05-28 21:47:00,,0813.1,5.00,0.00,29.1,27.2,00.0,38.0,30.9,14.2,0000.0,0013.84,0007.17,0006.05
2022-05-28 21:48:00,,0813.2,4.99,0.00,29.1,27.3,00.0,38.0,31.0,14.4,0000.0,0012.99,0007.15,0005.97
2022-05-28 21:49:00,,0813.1,5.00,0.00,29.1,27.5,00.0,38.0,31.0,14.7,0000.4,0013.29,0007.06,0005.88
2022-05-28 21:50:00,,0813.1,5.01,0.00,29.2,27.7,00.0,38.0,31.1,15.6,0000.8,0013.52,0007.04,0005.82
2022-05-28 21:51:00,,0813.1,5.00,0.00,29.2,27.9,00.0,38.0,31.1,15.7,0000.9,0013.59,0007.02,0005.77
2022-05-28 21:52:00,,0813.1,5.00,0.00,29.2,28.1,00.0,38.0,31.2,15.4,0000.8,0013.45,0006.96,0005.73
2022-05-28 21:53:00,,0813.1,5.01,0.00,29.3,28.2,00.0,38.1,31.2,15.0,0000.0,0013.49,0006.89,0005.69
2022-05-28 21:54:00,,0813.2,5.00,0.00,29.3,28.4,00.0,38.1,31.3,14.7,0000.0,0012.96,0006.84,0005.65
2022-05-28 21:55:00,,0813.1,5.01,0.00,29.3,28.5,00.0,38.1,31.3,14.4,0000.0,0012.86,0006.82,0005.62
2022-05-28 21:56:00,,0813.2,5.00,0.00,29.4,28.6,00.0,38.1,31.4,14.2,0000.0,0013.00,0006.82,0005.61
2022-05-28 21:57:00,,0813.1,5.01,0.00,29.4,28.1,00.0,38.1,31.3,14.1,0000.0,0013.20,0006.83,0005.60
2022-05-28 21:58:00,,0813.1,4.99,0.00,29.3,27.2,00.0,38.1,31.0,13.3,0000.0,0013.24,0006.79,0005.57
2022-05-28 21:59:00,,0813.1,5.01,0.00,29.2,26.9,00.0,38.0,30.9,13.9,0000.0,0013.09,0006.73,0005.55
